CAPE
24 985 1408 1197 1101 1120 1021 624 702 800 877 1150 1267 1306 1325 1247 1153 1160 1366 1343 1335 1419 1497 1421 1179 968 816 797 838 747 740 1071 1006 1611 1745 1924 1479 1753 1722 1538 1210 1295 1565
113 1233 1390 1301 1051 908 1017 574 500 640 563 638 686 695 721 826 961 943 955 926 939 844 701 676 622 564 531 580 721 869 610 733 1092 1212 1490 1701 1783 1431 1596 1653 1599 1229 1166
279 1027 1319 1302 1063 864 929 643 423 410 476 594 741 767 755 797 796 718 694 654 729 722 765 692 689 846 955 854 633 557 639 534 800 1164 1514 1107 1639 1660 1545 1604 1217 1713 1828
420 1084 1079 1293 1128 911 835 724 558 487 536 590 658 689 739 697 611 510 607 723 721 738 895 767 726 816 780 643 640 733 686 1296 1134 1264 1458 415 443 722 1332 1279 887 1617 1393
463 913 908 1137 1115 866 804 746 686 595 567 601 668 631 690 623 633 666 683 674 663 658 639 879 1041 1000 739 457 270 241 342 607 779 992 701 583 320 152 269 1306 1290 951 1646
369 655 1099 1005 937 809 754 729 738 770 711 672 546 414 365 526 709 722 890 910 768 674 781 840 850 620 439 352 295 296 254 138 227 264 181 223 603 415 233 1106 1375 1381 1582
257 486 1211 959 937 796 663 643 652 602 629 853 934 826 818 772 704 724 736 739 752 813 866 773 636 530 488 544 546 573 652 733 715 334 61 59 309 383 347 348 900 1542 1457
197 568 1167 859 880 712 608 544 494 454 622 1286 1374 1183 1071 1006 974 1050 923 905 1051 1443 1224 1085 826 657 603 580 723 914 1033 1139 1022 675 456 211 150 293 546 431 857 1434 1574
340 802 1010 762 621 622 620 583 432 494 1384 1605 1399 1263 1185 1080 1053 991 775 702 848 1068 1296 1145 897 738 723 1047 1392 1522 1581 1574 1391 899 779 689 333 544 937 640 553 1002 1375
511 744 727 765 495 502 625 741 854 1520 1649 1471 1316 1193 1058 888 858 830 714 496 663 1109 1040 874 922 881 1117 1528 1572 1286 1625 1583 1582 1143 838 760 732 770 918 732 428 334 744
346 522 552 513 445 675 985 1356 1557 1542 1456 1308 1055 823 762 586 365 432 562 741 1094 944 873 795 889 1360 1531 1136 726 965 1321 1065 1021 816 768 716 649 784 908 769 532 257 191
41 272 380 327 381 650 1011 1101 1245 1168 1053 671 722 930 1069 851 649 576 696 1004 1305 1418 1374 924 960 1202 545 143 160 618 762 995 1049 1081 1103 1187 1070 857 871 873 977 459 173
0 174 327 318 478 509 680 720 863 568 420 429 998 1428 855 709 554 521 606 630 669 769 960 874 1007 646 234 85 85 609 671 182 39 32 369 791 1055 1167 973 931 952 620 224
43 69 206 274 342 323 332 268 343 125 168 212 557 852 563 235 254 233 234 282 288 347 509 741 619 330 0 7 39 190 490 44 146 222 219 252 300 554 1198 979 1021 687 259
60 64 74 164 174 133 73 59 41 135 89 135 246 418 366 151 266 382 396 399 346 586 587 557 587 387 104 61 105 181 64 38 91 118 46 15 107 505 1251 900 1190 1031 509
147 51 27 2 22 27 5 0 0 10 30 78 216 159 111 174 247 268 259 299 352 811 883 707 625 585 494 355 386 303 140 53 28 6 2 10 80 279 733 787 877 1177 817
182 94 0 0 0 0 0 0 0 18 34 72 308 364 269 317 326 221 177 291 445 510 702 919 759 643 600 499 510 504 325 137 56 22 102 34 38 331 53 547 409 1089 803
69 6 0 0 0 0 0 0 0 9 48 85 202 327 383 385 379 240 150 158 260 283 324 632 817 890 772 638 579 443 421 327 326 214 400 222 320 74 123 367 492 716 679
2 0 0 0 0 0 0 0 0 29 40 56 127 179 271 405 366 278 162 106 182 232 532 701 816 942 913 812 675 479 557 504 371 347 363 494 785 370 145 199 232 437 332
0 0 0 0 0 0 0 0 16 49 74 127 239 152 177 166 179 210 139 120 201 333 372 451 697 837 909 795 374 736 817 576 427 339 398 361 66 50 76 0 1 53 416
0 0 0 0 0 0 0 0 0 198 331 295 272 285 246 202 152 107 92 99 139 158 197 413 698 706 738 574 853 602 537 464 424 472 353 283 36 0 48 128 62 20 3
0 0 0 0 0 0 20 22 31 109 95 40 49 125 196 228 160 128 137 100 162 349 467 485 596 654 823 903 965 635 509 464 356 239 194 71 5 0 132 391 549 356 292
0 0 0 0 0 0 46 162 208 226 177 164 147 73 94 162 162 126 160 204 261 415 536 601 664 659 663 762 875 751 625 492 458 404 234 59 0 0 6 161 157 124 312
0 0 0 0 0 11 20 47 107 76 134 164 179 159 149 155 141 170 223 291 392 520 575 556 646 727 795 812 889 879 861 855 901 588 442 424 316 168 24 74 128 97 447
0 0 0 0 14 27 66 67 73 114 163 164 206 320 230 304 318 323 287 295 381 498 628 597 600 703 894 1055 1009 919 958 1005 953 1026 751 566 509 545 473 432 338 355 761
0 0 0 0 21 62 105 143 168 225 242 273 299 384 317 336 532 597 594 385 332 466 592 717 791 842 943 1101 1197 1171 1079 1019 929 1001 933 720 688 648 630 465 365 292 441
CIN
-66 -5 -0 -1 -4 -14 -31 -57 -54 -53 -58 -52 -44 -37 -32 -34 -36 -35 -25 -29 -30 -22 -17 -18 -35 -39 -42 -45 -37 -43 -49 -24 -29 -1 -0 -0 -0 -0 -0 -0 -0 -2 -0
-201 -2 -1 -1 -12 -30 -40 -72 -67 -63 -69 -60 -57 -59 -61 -56 -51 -55 -53 -51 -55 -58 -70 -70 -70 -66 -67 -55 -44 -28 -45 -28 -6 -1 -0 -0 -0 -0 -0 -0 -2 -2 -0
-148 -15 -0 -4 -21 -38 -50 -73 -79 -75 -76 -69 -55 -61 -67 -66 -70 -74 -74 -80 -75 -74 -63 -69 -67 -52 -37 -39 -45 -47 -31 -34 -11 -0 -0 -6 -1 -1 -4 -1 -2 -0 -0
-142 -18 -10 -4 -15 -31 -51 -59 -66 -71 -72 -64 -59 -70 -75 -75 -88 -96 -87 -74 -76 -72 -50 -60 -62 -47 -43 -49 -44 -27 -27 -0 -0 -0 -1 -43 -39 -20 -5 -6 -17 -0 -4
-132 -48 -37 -17 -17 -34 -45 -48 -50 -68 -80 -74 -65 -76 -72 -75 -78 -74 -69 -70 -72 -75 -70 -47 -29 -27 -37 -65 -82 -77 -62 -25 -10 -7 -18 -34 -68 -75 -57 -3 -5 -7 -0
-169 -86 -27 -31 -32 -41 -49 -54 -53 -56 -67 -75 -84 -97 -111 -99 -80 -72 -52 -48 -56 -63 -52 -46 -39 -56 -73 -75 -81 -72 -76 -83 -69 -72 -82 -82 -42 -57 -66 -6 -2 -0 -0
-247 -134 -27 -43 -41 -50 -60 -67 -72 -74 -74 -63 -60 -67 -68 -72 -81 -71 -61 -55 -53 -43 -40 -43 -50 -56 -57 -47 -61 -53 -43 -28 -13 -44 -105 -99 -84 -49 -39 -29 -5 -0 -0
-276 -108 -25 -48 -46 -65 -78 -89 -94 -95 -76 -26 -21 -27 -32 -38 -45 -25 -38 -44 -28 -3 -12 -15 -27 -41 -46 -61 -43 -25 -16 -10 -17 -34 -47 -84 -87 -55 -32 -37 -11 -1 -0
-193 -66 -36 -59 -70 -71 -73 -86 -104 -97 -30 -14 -17 -18 -17 -23 -28 -26 -48 -61 -40 -26 -8 -11 -32 -44 -46 -18 -8 -5 -3 -1 -8 -36 -35 -41 -63 -43 -28 -19 -25 -12 -4
-122 -62 -72 -68 -104 -100 -78 -67 -62 -20 -13 -17 -16 -17 -25 -40 -44 -48 -60 -78 -57 -22 -35 -38 -43 -45 -26 -2 -0 -19 -7 -7 -9 -23 -37 -42 -46 -42 -31 -21 -29 -44 -25
-183 -103 -106 -125 -136 -88 -43 -9 -2 -5 -8 -12 -23 -42 -51 -79 -107 -94 -74 -54 -32 -43 -50 -47 -40 -14 -3 -17 -41 -30 -27 -53 -50 -48 -46 -39 -34 -43 -34 -22 -23 -35 -40
-432 -244 -189 -204 -172 -101 -42 -33 -25 -33 -46 -84 -75 -52 -35 -54 -76 -79 -71 -46 -29 -32 -28 -33 -34 -27 -78 -134 -134 -58 -57 -58 -64 -57 -39 -28 -25 -32 -32 -27 -17 -36 -36
-0 -340 -256 -240 -158 -139 -108 -102 -79 -121 -153 -146 -64 -33 -75 -90 -116 -119 -104 -101 -88 -69 -53 -43 -51 -82 -124 -151 -169 -97 -92 -152 -18 -71 -134 -91 -46 -23 -13 -17 -19 -21 -35
-514 -479 -367 -302 -248 -237 -225 -246 -227 -309 -278 -259 -162 -100 -142 -221 -208 -210 -212 -173 -146 -144 -93 -72 -84 -115 -0 -233 -234 -128 -93 -194 -196 -209 -187 -159 -142 -99 -38 -34 -32 -41 -38
-519 -518 -488 -396 -358 -352 -371 -386 -420 -314 -339 -305 -250 -189 -202 -259 -195 -158 -149 -141 -141 -111 -86 -83 -84 -111 -174 -205 -189 -169 -161 -199 -175 -219 -229 -198 -218 -142 -39 -50 -49 -36 -35
-457 -529 -542 -183 -514 -477 -152 -0 -0 -147 -413 -338 -250 -270 -307 -266 -206 -180 -181 -162 -150 -83 -65 -84 -89 -98 -109 -133 -137 -142 -149 -173 -251 -243 -96 -162 -179 -121 -38 -78 -108 -35 -22
-464 -463 -0 -0 -0 -0 -0 -0 -0 -416 -398 -335 -188 -169 -185 -177 -162 -178 -192 -167 -118 -76 -66 -73 -88 -112 -94 -102 -89 -111 -130 -178 -220 -214 -209 -250 -218 -127 -151 -103 -126 -71 -48
-495 -495 -0 -0 -0 -0 -0 -0 -0 -374 -366 -338 -215 -162 -147 -160 -151 -166 -197 -197 -142 -107 -97 -60 -60 -62 -63 -74 -73 -80 -104 -148 -176 -189 -105 -166 -134 -168 -129 -117 -138 -123 -72
-163 -0 -0 -0 -0 -0 -0 -0 -0 -343 -328 -301 -244 -224 -166 -135 -150 -174 -215 -241 -162 -141 -56 -45 -36 -61 -58 -57 -68 -78 -95 -119 -156 -174 -162 -137 -138 -143 -159 -193 -147 -128 -113
-0 -0 -0 -0 -0 -0 -0 -0 -449 -402 -352 -304 -243 -271 -235 -241 -214 -200 -222 -211 -159 -119 -92 -71 -43 -57 -61 -59 -76 -44 -56 -106 -165 -173 -150 -187 -255 -220 -228 -0 -8 -230 -146
-0 -0 -0 -0 -0 -0 -0 -0 -0 -371 -317 -315 -308 -234 -231 -229 -238 -258 -239 -216 -202 -162 -124 -68 -46 -43 -51 -73 -42 -32 -52 -114 -180 -170 -203 -229 -278 -0 -281 -193 -231 -322 -374
-0 -0 -0 -0 -0 -0 -551 -510 -475 -430 -387 -349 -316 -292 -245 -228 -252 -267 -247 -217 -168 -96 -71 -74 -68 -54 -47 -46 -18 -30 -25 -60 -165 -229 -290 -339 -250 -0 -240 -189 -181 -196 -202
-0 -0 -0 -0 -0 -0 -574 -488 -446 -399 -372 -346 -348 -371 -327 -282 -259 -255 -216 -207 -179 -137 -98 -84 -72 -80 -59 -58 -47 -24 -27 -38 -79 -161 -227 -333 -0 -0 -82 -216 -229 -255 -195
-0 -0 -0 -0 -0 -729 -650 -576 -488 -456 -365 -350 -337 -360 -352 -329 -314 -277 -255 -224 -193 -169 -154 -164 -116 -100 -87 -73 -63 -62 -47 -29 -10 -60 -116 -133 -188 -234 -278 -292 -251 -242 -161
-0 -0 -0 -0 -712 -689 -642 -609 -542 -477 -407 -380 -356 -320 -335 -297 -282 -254 -252 -230 -216 -198 -184 -174 -167 -147 -109 -69 -70 -66 -53 -46 -54 -16 -76 -81 -137 -124 -159 -178 -190 -188 -125
-0 -0 -0 -0 -638 -598 -578 -549 -503 -433 -370 -362 -344 -327 -322 -285 -236 -231 -216 -238 -239 -214 -196 -165 -146 -135 -113 -109 -99 -77 -70 -52 -71 -45 -48 -85 -85 -102 -125 -168 -188 -185 -150
Wind_Speed
35 34 35 34 33 32 31 29 26 25 24 23 24 24 24 23 22 21 20 19 18 18 17 18 17 17 17 17 17 17 17 17 16 16 15 15 14 13 12 12 11 11 11
36 35 35 34 33 31 31 30 28 27 25 23 23 22 23 22 21 20 18 17 18 18 18 17 17 17 16 16 16 16 16 16 16 15 15 14 13 12 11 13 11 11 10
34 36 35 35 33 31 31 30 28 27 25 23 23 22 22 21 21 20 19 19 18 18 16 15 14 14 14 12 12 11 16 16 14 13 14 14 13 11 12 11 10 10 10
34 35 35 35 34 33 32 31 30 28 26 25 24 22 21 21 21 20 19 18 17 16 15 14 13 13 12 12 12 12 12 13 13 14 15 15 14 14 15 10 10 10 10
34 35 35 35 35 34 33 32 31 31 29 27 25 23 22 20 19 18 18 17 16 15 14 13 13 13 12 12 12 12 12 13 13 14 15 15 14 14 16 14 10 9 10
35 35 35 35 35 34 33 33 32 31 29 28 26 24 22 21 19 18 17 17 15 14 14 14 13 12 12 12 13 12 13 13 14 14 15 15 15 14 13 13 10 8 11
35 36 35 35 34 34 33 32 31 29 27 26 25 23 22 20 19 19 17 16 15 14 14 13 12 12 12 13 12 13 14 13 15 16 16 14 14 13 13 12 14 11 17
33 35 34 34 33 33 33 31 30 28 26 24 23 22 20 20 19 19 17 17 15 14 13 13 12 12 12 13 13 13 13 13 12 15 16 15 15 14 13 13 15 20 19
31 33 34 34 33 32 31 30 29 27 25 24 23 21 20 20 19 19 18 17 15 14 13 11 11 11 12 14 15 14 13 13 13 13 15 16 15 13 14 15 17 18 17
29 31 31 33 33 32 30 29 28 26 24 23 22 21 20 20 19 19 18 16 15 14 11 12 11 11 12 14 15 16 16 15 14 14 13 15 16 15 14 14 16 18 19
30 31 30 30 31 30 29 28 27 25 24 22 21 20 20 20 19 19 18 17 15 14 11 9 10 10 9 13 15 13 13 11 17 20 20 19 19 17 14 13 16 21 21
31 31 30 29 29 28 27 27 25 24 23 22 20 19 18 19 18 18 17 16 15 14 14 11 9 9 8 10 11 7 16 16 18 19 21 23 21 18 14 13 14 20 21
32 30 30 29 28 27 26 25 24 23 22 21 20 19 18 18 17 18 16 15 14 13 13 11 9 9 8 9 10 8 13 18 15 18 21 23 25 25 21 18 15 18 19
32 30 29 29 28 27 25 24 23 22 21 20 20 19 18 17 17 17 16 14 13 13 11 10 10 9 8 8 7 7 9 15 18 15 23 27 26 28 26 22 19 17 19
31 30 29 29 28 27 25 24 22 21 20 19 19 19 18 16 16 16 16 13 11 11 10 9 9 7 7 7 6 6 6 9 8 4 5 16 21 23 29 28 25 19 18
30 29 28 29 28 26 25 24 22 21 21 19 19 19 18 16 15 14 14 13 10 9 9 7 7 7 8 6 6 6 5 7 6 6 5 12 14 20 18 5 21 21 18
29 27 27 27 27 26 25 24 22 21 20 19 19 17 17 16 15 14 13 13 10 9 8 8 7 6 6 6 5 4 4 4 5 8 6 10 10 12 19 16 7 12 17
27 26 25 25 24 24 23 23 21 21 20 19 18 18 18 17 16 15 14 13 11 9 8 7 8 6 6 5 4 4 4 6 4 6 7 8 9 8 13 8 20 21 29
27 26 26 25 24 24 24 23 22 22 21 21 18 18 18 18 17 16 14 11 11 7 6 6 5 6 7 6 4 4 4 5 4 5 6 8 10 7 13 11 7 27 28
28 27 27 26 25 25 24 23 22 21 20 19 19 16 16 16 15 13 13 12 8 7 6 6 6 6 5 4 5 4 5 10 7 6 6 6 7 12 12 17 21 26 27
28 28 28 27 26 25 24 23 23 21 21 20 18 15 14 13 12 11 11 11 9 7 7 6 6 6 6 6 10 13 11 8 9 8 6 5 8 13 17 18 19 20 21
26 27 27 28 26 25 23 22 21 20 18 16 16 14 13 11 11 10 10 11 9 8 7 6 5 5 9 10 11 16 16 14 11 8 8 7 7 10 13 14 15 15 17
24 25 26 26 26 25 24 21 19 16 16 15 14 13 13 12 10 9 10 11 11 8 7 5 3 3 2 9 8 13 18 16 19 13 8 6 6 5 4 11 12 15 9
25 23 23 23 22 22 22 21 20 19 17 15 13 13 13 10 11 8 9 8 7 5 4 5 1 1 5 3 9 6 7 10 13 16 14 11 5 5 6 6 10 18 4
22 21 21 21 20 19 20 20 19 17 15 13 11 12 11 11 8 8 7 7 6 5 6 5 4 4 4 5 6 10 9 9 7 9 12 14 16 11 7 4 5 12 12
17 18 17 19 20 18 18 17 16 15 14 11 11 9 9 8 5 3 3 4 6 7 7 8 9 9 9 8 9 10 10 11 11 9 7 6 9 29 20 17 11 13 18
Wind_Direction
146 137 135 132 128 123 119 109 100 97 97 95 96 97 96 97 94 93 90 86 80 75 69 82 96 72 59 73 57 44 28 20 25 30 34 31 26 13 34 32 27 20 38
135 137 136 133 131 127 125 119 111 106 101 98 98 97 97 97 96 95 87 81 86 90 99 99 82 65 74 77 56 40 28 3 346 17 47 40 22 15 355 328 21 29 36
131 138 137 137 134 130 129 125 120 114 108 104 103 102 102 102 101 101 99 105 109 117 127 137 124 124 114 143 194 143 18 20 52 78 75 85 37 32 82 61 35 44 47
131 137 140 140 138 136 133 132 128 124 118 114 113 109 105 106 109 108 108 112 118 130 135 143 138 141 169 190 195 198 165 140 126 138 140 134 127 127 150 42 76 72 69
133 138 142 143 142 140 137 136 134 132 129 125 122 118 115 113 111 113 117 122 130 141 151 154 147 156 157 178 188 183 179 179 161 160 167 165 160 159 183 140 77 83 90
134 139 142 144 145 144 142 140 138 137 137 136 135 133 131 129 126 124 127 134 139 150 151 154 153 156 160 170 192 188 189 187 200 173 170 180 173 159 133 126 110 91 117
134 141 142 144 145 147 145 143 142 141 139 140 142 142 142 136 138 140 138 146 155 158 160 159 161 167 175 189 187 194 197 189 196 196 186 179 156 155 144 138 144 132 158
132 141 143 145 145 146 147 146 146 145 144 143 141 143 143 144 151 157 160 164 165 161 167 169 173 180 184 190 194 193 191 183 172 188 199 181 177 183 172 158 158 177 177
131 138 146 149 149 149 150 150 152 150 148 148 150 151 153 156 160 171 173 172 171 168 167 161 173 178 186 201 206 199 193 192 188 179 192 197 184 180 195 174 177 179 174
132 138 142 150 153 153 155 155 154 153 152 153 156 160 163 166 171 175 178 170 173 170 158 185 188 191 196 204 212 215 210 207 200 195 182 192 199 205 196 167 183 184 186
141 144 145 145 151 153 155 157 156 155 157 158 158 161 168 172 173 180 179 175 175 179 173 168 182 182 176 211 214 202 197 169 210 233 234 220 218 205 188 173 186 206 202
147 151 150 149 149 150 154 157 156 156 157 159 159 156 157 168 172 175 180 183 182 188 197 183 166 160 124 70 192 83 350 347 330 309 290 268 232 209 187 187 187 196 201
152 152 155 153 152 152 155 157 159 160 161 163 165 164 163 165 171 176 177 179 180 192 196 182 146 141 150 149 171 91 12 331 339 324 309 294 276 255 224 212 192 191 191
154 157 157 157 157 159 159 159 159 159 164 164 167 166 163 166 171 174 176 177 186 192 181 164 152 162 159 131 147 123 94 338 319 342 302 279 253 256 241 218 203 189 191
159 160 161 160 162 162 163 164 164 163 165 166 168 170 169 163 167 175 182 178 175 177 163 158 166 160 142 123 127 149 101 87 88 77 73 216 229 238 254 272 226 197 189
160 162 159 165 167 165 168 168 167 165 167 164 165 170 172 169 167 168 177 177 179 150 139 122 149 160 180 163 151 136 139 91 129 107 132 189 220 222 212 323 201 197 188
161 157 158 160 163 167 169 171 168 168 166 170 175 170 174 175 178 176 177 182 171 119 103 85 106 99 149 154 179 125 139 127 132 158 137 171 182 199 209 196 162 172 184
155 155 155 153 156 160 161 163 166 170 171 173 176 179 181 184 184 184 186 189 176 158 126 103 87 117 134 134 121 93 123 85 129 165 160 164 178 183 189 177 292 281 234
158 158 157 154 155 158 163 166 169 173 173 180 179 183 186 188 189 187 185 183 182 154 116 111 112 130 160 161 127 98 95 67 108 136 164 181 199 176 193 175 206 241 224
162 163 163 160 161 163 166 171 174 176 178 177 174 166 171 179 183 181 185 186 166 147 133 91 87 88 92 144 81 83 76 49 70 99 125 149 190 188 186 201 208 227 224
166 166 167 165 167 164 166 170 176 174 174 171 170 164 163 165 167 166 173 179 170 141 146 119 69 73 68 68 43 27 33 49 58 78 95 137 172 203 205 207 203 204 210
166 169 169 172 168 169 170 173 174 170 173 175 180 177 173 168 168 160 164 171 169 158 149 145 118 73 39 39 29 16 20 29 55 91 64 90 146 184 193 189 193 194 201
170 171 171 171 172 171 172 167 167 161 174 175 177 177 175 172 171 168 169 175 180 172 175 153 115 104 76 23 27 12 3 10 2 29 65 100 92 81 126 188 195 204 179
180 173 173 172 171 173 172 174 177 180 181 180 175 174 176 166 173 166 172 175 187 186 199 207 180 42 15 350 2 7 4 3 358 1 14 20 56 82 37 23 193 235 164
173 173 174 174 174 173 176 178 181 183 184 180 171 177 176 177 176 189 198 212 230 242 242 259 285 297 312 323 332 344 343 343 343 341 345 356 347 355 13 30 11 339 337
173 174 172 177 181 179 179 182 185 188 189 184 183 177 178 185 204 250 254 264 272 296 288 288 295 303 307 296 309 315 320 326 326 323 307 310 334 299 326 332 344 335 327